• în România
  • Lista ţărilor
  • Pe 7 zile
  • Temperatura apei
  • Hartă satelitară
  • Meteo pe hartă
  • Widget-uri
  • user-avatar
    Intrare

    Meteo pe oră la Naydenka

    Astăzi, 17 Iulie, Marţi

    Timp Temperatura Precipitaţii Vânt Presiune Umiditate
    00:00 +19°C° 0 mm 2 m/s 744 mmHg 89%
    01:00 +18°C° 0 mm 2 m/s 744 mmHg 90%
    02:00 +18°C° 0 mm 2 m/s 744 mmHg 97%
    03:00 +18°C° 0 mm 2 m/s 744 mmHg 94%
    04:00 +19°C° 0 mm 3 m/s 744 mmHg 92%
    05:00 +19°C° 0 mm 3 m/s 744 mmHg 89%
    06:00 +21°C° 0 mm 4 m/s 744 mmHg 82%
    07:00 +23°C° 0 mm 4 m/s 744 mmHg 74%
    08:00 +26°C° 0 mm 5 m/s 744 mmHg 66%
    09:00 +27°C° 0 mm 5 m/s 744 mmHg 62%
    10:00 +28°C° 0 mm 5 m/s 744 mmHg 58%
    11:00 +28°C° 0 mm 5 m/s 744 mmHg 54%
    12:00 +29°C° 0 mm 5 m/s 743 mmHg 52%
    13:00 +29°C° 0 mm 5 m/s 743 mmHg 49%
    14:00 +30°C° 0 mm 5 m/s 743 mmHg 47%
    15:00 +29°C° 0 mm 5 m/s 743 mmHg 49%
    16:00 +29°C° 0 mm 4 m/s 743 mmHg 52%
    17:00 +28°C° 0 mm 4 m/s 743 mmHg 54%
    18:00 +26°C° 0 mm 3 m/s 743 mmHg 59%
    19:00 +25°C° 0 mm 3 m/s 743 mmHg 65%
    20:00 +22°C° 0 mm 3 m/s 742 mmHg 70%
    21:00 +21°C° 0 mm 3 m/s 742 mmHg 70%
    22:00 +21°C° 0 mm 3 m/s 742 mmHg 70%
    23:00 +20°C° 0 mm 3 m/s 742 mmHg 70%

    Mâine, 18 Iulie, Miercuri

    Timp Temperatura Precipitaţii Vânt Presiune Umiditate
    00:00 +20°C° 0 mm 3 m/s 742 mmHg 71%
    01:00 +20°C° 0 mm 3 m/s 742 mmHg 71%
    02:00 +19°C° 0 mm 3 m/s 742 mmHg 72%
    03:00 +19°C° 0,1 mm 4 m/s 742 mmHg 74%
    04:00 +19°C° 0,1 mm 4 m/s 742 mmHg 77%
    05:00 +19°C° 0,1 mm 4 m/s 742 mmHg 79%
    06:00 +20°C° 0,3 mm 4 m/s 742 mmHg 75%
    07:00 +21°C° 0,3 mm 5 m/s 742 mmHg 72%
    08:00 +23°C° 0,3 mm 5 m/s 742 mmHg 68%
    09:00 +25°C° 0 mm 5 m/s 741 mmHg 64%
    10:00 +26°C° 0 mm 5 m/s 741 mmHg 60%
    11:00 +27°C° 0 mm 5 m/s 741 mmHg 55%
    12:00 +27°C° 0,6 mm 5 m/s 741 mmHg 61%
    13:00 +26°C° 0,6 mm 5 m/s 740 mmHg 67%
    14:00 +26°C° 0,6 mm 5 m/s 740 mmHg 72%
    15:00 +26°C° 0,8 mm 4 m/s 740 mmHg 76%
    16:00 +25°C° 0,8 mm 4 m/s 740 mmHg 80%
    17:00 +23°C° 0,8 mm 4 m/s 740 mmHg 84%
    18:00 +22°C° 0,2 mm 4 m/s 740 mmHg 86%
    19:00 +21°C° 0,2 mm 3 m/s 740 mmHg 88%
    20:00 +20°C° 0,2 mm 3 m/s 740 mmHg 90%
    21:00 +20°C° 0,3 mm 3 m/s 740 mmHg 91%
    22:00 +19°C° 0,3 mm 3 m/s 740 mmHg 93%
    23:00 +19°C° 0,3 mm 3 m/s 740 mmHg 94%

    Poimâine, 19 Iulie, Joi

    Timp Temperatura Precipitaţii Vânt Presiune Umiditate
    00:00 +19°C° 0 mm 3 m/s 740 mmHg 94%
    01:00 +19°C° 0 mm 3 m/s 740 mmHg 93%
    02:00 +18°C° 0 mm 3 m/s 740 mmHg 93%
    03:00 +18°C° 0 mm 4 m/s 740 mmHg 92%
    04:00 +19°C° 0 mm 4 m/s 740 mmHg 92%
    05:00 +19°C° 0 mm 4 m/s 740 mmHg 91%
    06:00 +20°C° 0 mm 4 m/s 740 mmHg 88%
    07:00 +20°C° 0 mm 4 m/s 740 mmHg 84%
    08:00 +21°C° 0 mm 4 m/s 740 mmHg 81%
    09:00 +22°C° 0 mm 4 m/s 740 mmHg 78%
    10:00 +23°C° 0 mm 5 m/s 740 mmHg 75%
    11:00 +23°C° 0 mm 5 m/s 740 mmHg 73%
    12:00 +25°C° 0,5 mm 4 m/s 740 mmHg 76%
    13:00 +25°C° 0,5 mm 4 m/s 740 mmHg 79%
    14:00 +25°C° 0,5 mm 4 m/s 740 mmHg 83%
    15:00 +25°C° 0,5 mm 4 m/s 740 mmHg 83%
    16:00 +25°C° 0,5 mm 4 m/s 740 mmHg 83%
    17:00 +25°C° 0,5 mm 4 m/s 740 mmHg 83%
    18:00 +23°C° 0,1 mm 4 m/s 740 mmHg 86%
    19:00 +22°C° 0,1 mm 3 m/s 740 mmHg 88%
    20:00 +21°C° 0,1 mm 3 m/s 740 mmHg 91%
    21:00 +21°C° 0,8 mm 3 m/s 740 mmHg 92%
    22:00 +20°C° 0,8 mm 3 m/s 741 mmHg 94%
    23:00 +20°C° 0,8 mm 3 m/s 741 mmHg 96%

    20 Iulie, Vineri

    Timp Temperatura Precipitaţii Vânt Presiune Umiditate
    00:00 +20°C° 0 mm 3 m/s 741 mmHg 96%
    01:00 +19°C° 0 mm 3 m/s 741 mmHg 97%
    02:00 +19°C° 0 mm 4 m/s 741 mmHg 97%
    03:00 +19°C° 0 mm 4 m/s 741 mmHg 96%
    04:00 +19°C° 0 mm 4 m/s 741 mmHg 96%
    05:00 +19°C° 0 mm 4 m/s 741 mmHg 95%
    06:00 +19°C° 0,1 mm 4 m/s 741 mmHg 95%
    07:00 +19°C° 0,1 mm 4 m/s 741 mmHg 94%
    08:00 +20°C° 0,1 mm 4 m/s 741 mmHg 93%
    09:00 +20°C° 0 mm 4 m/s 741 mmHg 92%
    10:00 +20°C° 0 mm 4 m/s 742 mmHg 91%
    11:00 +20°C° 0 mm 4 m/s 742 mmHg 90%
    12:00 +20°C° 0 mm 4 m/s 742 mmHg 87%
    13:00 +21°C° 0 mm 4 m/s 742 mmHg 84%
    14:00 +21°C° 0 mm 4 m/s 741 mmHg 81%
    15:00 +21°C° 0 mm 4 m/s 741 mmHg 80%
    16:00 +22°C° 0 mm 3 m/s 741 mmHg 78%
    17:00 +22°C° 0 mm 3 m/s 741 mmHg 77%
    18:00 +21°C° 0 mm 3 m/s 741 mmHg 81%
    19:00 +21°C° 0 mm 2 m/s 741 mmHg 85%
    20:00 +20°C° 0 mm 2 m/s 741 mmHg 90%
    21:00 +19°C° 0 mm 2 m/s 741 mmHg 92%
    22:00 +19°C° 0 mm 2 m/s 741 mmHg 94%
    23:00 +18°C° 0 mm 2 m/s 740 mmHg 96%

    21 Iulie, Sâmbătă

    Timp Temperatura Precipitaţii Vânt Presiune Umiditate
    00:00 +18°C° 0 mm 2 m/s 740 mmHg 96%
    01:00 +18°C° 0 mm 2 m/s 740 mmHg 97%
    02:00 +18°C° 0 mm 2 m/s 740 mmHg 98%
    03:00 +18°C° 0,1 mm 2 m/s 740 mmHg 98%
    04:00 +18°C° 0,1 mm 2 m/s 740 mmHg 98%
    05:00 +19°C° 0,1 mm 2 m/s 740 mmHg 97%
    06:00 +19°C° 0,1 mm 2 m/s 740 mmHg 97%
    07:00 +19°C° 0,1 mm 2 m/s 740 mmHg 96%
    08:00 +20°C° 0,1 mm 3 m/s 740 mmHg 96%
    09:00 +20°C° 0 mm 3 m/s 740 mmHg 94%
    10:00 +21°C° 0 mm 2 m/s 740 mmHg 92%
    11:00 +21°C° 0 mm 2 m/s 740 mmHg 90%
    12:00 +23°C° 0 mm 2 m/s 739 mmHg 86%
    13:00 +24°C° 0 mm 2 m/s 739 mmHg 83%
    14:00 +25°C° 0 mm 2 m/s 739 mmHg 79%
    15:00 +26°C° 0,1 mm 2 m/s 739 mmHg 78%
    16:00 +26°C° 0,1 mm 2 m/s 739 mmHg 77%
    17:00 +27°C° 0,1 mm 2 m/s 739 mmHg 76%
    18:00 +26°C° 0,3 mm 2 m/s 739 mmHg 82%
    19:00 +25°C° 0,3 mm 2 m/s 739 mmHg 88%
    20:00 +23°C° 0,3 mm 2 m/s 739 mmHg 94%
    21:00 +23°C° 0,4 mm 2 m/s 738 mmHg 95%
    22:00 +21°C° 0,4 mm 2 m/s 738 mmHg 96%
    23:00 +21°C° 0,4 mm 2 m/s 738 mmHg 97%

    22 Iulie, Duminică

    Timp Temperatura Precipitaţii Vânt Presiune Umiditate
    00:00 +20°C° 0 mm 2 m/s 738 mmHg 97%
    01:00 +21°C° 0 mm 1 m/s 738 mmHg 98%
    02:00 +21°C° 0 mm 1 m/s 738 mmHg 98%
    03:00 +20°C° 0 mm 2 m/s 738 mmHg 97%
    04:00 +20°C° 0 mm 2 m/s 738 mmHg 97%
    05:00 +20°C° 0 mm 2 m/s 738 mmHg 97%
    06:00 +23°C° 0 mm 2 m/s 738 mmHg 91%
    07:00 +24°C° 0 mm 2 m/s 738 mmHg 86%
    08:00 +26°C° 0 mm 3 m/s 738 mmHg 80%
    09:00 +27°C° 0,2 mm 3 m/s 738 mmHg 74%
    10:00 +28°C° 0,2 mm 3 m/s 738 mmHg 68%
    11:00 +29°C° 0,2 mm 3 m/s 738 mmHg 62%
    12:00 +29°C° 1,1 mm 3 m/s 738 mmHg 67%
    13:00 +28°C° 1,1 mm 3 m/s 737 mmHg 72%
    14:00 +28°C° 1,1 mm 3 m/s 737 mmHg 77%
    15:00 +28°C° 0,4 mm 3 m/s 737 mmHg 77%
    16:00 +28°C° 0,4 mm 3 m/s 737 mmHg 76%
    17:00 +27°C° 0,4 mm 2 m/s 737 mmHg 76%
    18:00 +26°C° 0,5 mm 2 m/s 737 mmHg 81%
    19:00 +24°C° 0,5 mm 2 m/s 737 mmHg 85%
    20:00 +23°C° 0,5 mm 2 m/s 737 mmHg 90%
    21:00 +21°C° 0,5 mm 2 m/s 737 mmHg 92%
    22:00 +21°C° 0,5 mm 2 m/s 737 mmHg 93%
    23:00 +20°C° 0,5 mm 2 m/s 737 mmHg 95%
    Arată mai mult